Regional Weather Roundup
Issued by NWS Columbia, SC

Home | Current Version | Previous Version | Text Only | Print | Product List | Glossary On
Versions: 1 2 3 4 5 6 7 8 9 10 11 12 13 14 15 16 17 18 19 20 21 22 23 24 25 26 27 28 29 30 31 32 33 34 35 36 37 38 39 40 41 42 43 44 45 46 47 48 49 50
000
ASUS42 KCAE 210610
RWRCAE
REGIONAL WEATHER ROUNDUP
NATIONAL WEATHER SERVICE COLUMBIA SC
200 AM EDT TUE APR 21 2015

NOTE: "FAIR" INDICATES FEW OR NO CLOUDS BELOW 12,000 FEET WITH NO
SIGNIFICANT WEATHER AND/OR OBSTRUCTIONS TO VISIBILITY.

NOT ALL STATIONS ARE QUALITY CONTROLLED BY THE NATIONAL
WEATHER SERVICE. USE DATA WITH CAUTION...ESPECIALLY
DEWPOINT OBSERVATIONS.

SCZ001>056-GAZ040-063>065-077-210700-
...UPSTATE SOUTH CAROLINA...

CITY           SKY/WX    TMP DP  RH WIND       PRES   REMARKS
ANDERSON       FAIR      60  45  57 W14       29.83R
6HR MIN TEMP:  59; 6HR MAX TEMP:  66;

LIBERTY        FAIR      56  47  70 CALM      29.83R
6HR MIN TEMP:  56; 6HR MAX TEMP:  69;

SPARTANBURG    FAIR      59  48  67 NW5       29.80R
CLEMSON        FAIR      58  44  60 W12       29.83R
6HR MIN TEMP:  58; 6HR MAX TEMP:  65;

GREENVILLE     FAIR      57  45  64 W6        29.82R
6HR MIN TEMP:  57; 6HR MAX TEMP:  66;

GREENWOOD      FAIR      57  52  83 SW8       29.84R
6HR MIN TEMP:  57; 6HR MAX TEMP:  67; 6HR PCP:  0.17;

GREER          FAIR      54  49  83 N7        29.79R
6HR MIN TEMP:  54; 6HR MAX TEMP:  65;

ROCK HILL      FAIR      60  56  86 W8        29.78R
6HR MIN TEMP:  59; 6HR MAX TEMP:  63;

CHESTER        FAIR      63  52  67 W7        29.79R
LAURENS        FAIR      59  55  88 W7        29.81R


...CENTRAL SOUTH CAROLINA...

CITY           SKY/WX    TMP DP  RH WIND       PRES   REMARKS
COLUMBIA APT   FAIR      65  52  62 W9        29.80S
6HR MIN TEMP:  65; 6HR MAX TEMP:  72;

COLUMBIA OWENS FAIR      65  53  65 SW8       29.81S
6HR MIN TEMP:  65; 6HR MAX TEMP:  72;

DARLINGTON     FAIR      66  57  72 SW10      29.78S
6HR MIN TEMP:  66; 6HR MAX TEMP:  70;

FLORENCE       FAIR      66  60  81 SW10      29.78R
6HR MIN TEMP:  66; 6HR MAX TEMP:  70;

MCENTIRE ANGB  FAIR      63  58  82 SW7       29.80S
6HR MIN TEMP:  63; 6HR MAX TEMP:  69; 6HR PCP: TRACE;

ORANGEBURG     FAIR      62  59  90 SW6       29.83R
6HR MIN TEMP:  62; 6HR MAX TEMP:  69;

SUMTER SHAW    FAIR      64  59  85 SW13      29.78R
6HR MIN TEMP:  64; 6HR MAX TEMP:  70;

NEWBERRY       FAIR      61  52  72 W8        29.84R
AIKEN          FAIR      63  48  59 W12       29.86S
BARNWELL       FAIR      64  63  94 SW5       29.85R
MANNING        FAIR      64  59  82 SW8       29.82S
CAMDEN         FAIR      64  57  77 SW9       29.78S
LANCASTER      MIX PCPN  63  57  82 W9        29.78R
WINNSBORO      FAIR      61  55  82 W7        29.79S


...EASTERN AND COASTAL SOUTH CAROLINA...

CITY           SKY/WX    TMP DP  RH WIND       PRES   REMARKS
MYRTLE BEACH   FAIR      70  57  64 SW13G21   29.82S
6HR MIN TEMP:  70; 6HR MAX TEMP:  72;

N MYRTLE BCH   FAIR      68  59  73 SW13      29.79R
6HR MIN TEMP:  67; 6HR MAX TEMP:  69; 6HR PCP: TRACE;

CONWAY         FAIR      66  61  82 SW7       29.80R
MARION         FAIR      66  61  82 SW12G18   29.78S
HARTSVILLE     FAIR      63  59  88 SW6       29.79R
FLORENCE       FAIR      66  60  81 SW10      29.78R
6HR MIN TEMP:  66; 6HR MAX TEMP:  70;

DARLINGTON     FAIR      66  57  72 SW10      29.78S
6HR MIN TEMP:  66; 6HR MAX TEMP:  70;

CHARLESTON APT FAIR      67  59  75 SW10      29.83F
6HR MIN TEMP:  67; 6HR MAX TEMP:  72;

MOUNT PLEASANT FAIR      68  61  77 CALM      29.83F
WALTERBORO     FAIR      64  59  82 SW8       29.85R
BEAUFORT       FAIR      66  60  81 SW14      29.85S
6HR MIN TEMP:  66; 6HR MAX TEMP:  70;



...EASTERN GEORGIA...

CITY           SKY/WX    TMP DP  RH WIND       PRES   REMARKS
AUGUSTA BUSH F FAIR      62  57  83 W6        29.85R
6HR MIN TEMP:  62; 6HR MAX TEMP:  70;

AUGUSTA DANIEL MOCLDY    67  49  52 W9G17     29.86R
6HR MIN TEMP:  66; 6HR MAX TEMP:  72;

THOMSON        FAIR      61  56  84 CALM      29.91R
6HR MIN TEMP:  61; 6HR MAX TEMP:  72;

WASHINGTON     FAIR      63  54  72 W8        29.85S
CLAXTON        FAIR      63  63 100 CALM      29.87R
SYLVANIA       FAIR      65  63  94 W5        29.86R
6HR MIN TEMP:  64; 6HR MAX TEMP:  70;

STATESBORO       N/A     65  65 100 W8        29.87R
6HR MIN TEMP:  64; 6HR MAX TEMP:  70;

SAVANNAH       FAIR      64  59  83 SW10      29.87S
6HR MIN TEMP:  64; 6HR MAX TEMP:  69;



...SOUTHERN NORTH CAROLINA...

CITY           SKY/WX    TMP DP  RH WIND       PRES   REMARKS
CHARLOTTE      FAIR      59  55  87 NW3       29.77R
6HR MIN TEMP:  58; 6HR MAX TEMP:  64;

MONROE         FAIR      62  54  74 W10       29.74R
6HR MIN TEMP:  61; 6HR MAX TEMP:  66;

WADESBORO      FAIR      65  61  86 S6        29.73S
6HR MIN TEMP:  65; 6HR MAX TEMP:  70;

ROCKINGHAM     CLOUDY    66  62  85 SW9       29.75S
6HR MIN TEMP:  66; 6HR MAX TEMP:  69;

RUTHERFORDTON  FAIR      58  41  53 NW16G25   29.81R
6HR MIN TEMP:  58; 6HR MAX TEMP:  65;

ASHEVILLE      FAIR      52  37  56 NW12      29.85R
6HR MIN TEMP:  52; 6HR MAX TEMP:  63;


$$


USA.gov is the U.S. government's official web portal to all federal, state and local government web resources and services.